Flag for Germany Weather past 2 weeks in Kassel, Hesse, Germany

39 °F

Light rain. Passing clouds.

Feels Like: 29 °F
Forecast: 41 / 50 °F
Wind: 21 mph from Southwest

Location: Fritzlar Airport

Current Time: Nov 29, 2015 at 2:50:19 AM

Latest Report: Nov 29, 2015 at 2:20 AM

Visibility: N/A

Pressure: 29.86 "Hg

Humidity: 81%

Dew point: 34 °F

Location of KasselLocation

Historic Weather in Kassel — Graph


Kassel temperature yesterday

Maximum temperature yesterday: 43 °F (at 12:20 PM)
Minimum temperature yesterday: 32 °F (at 1:20 AM)
Average temperature yesterday: 37 °F

Past Weeks' High & Low Weather Summary

High59 °F (Nov 17, 1:20 PM)100% (Nov 23, 9:20 PM)30.27 "Hg (Nov 23, 9:20 PM)
Low27 °F (Nov 23, 10:20 PM)55% (Nov 18, 11:20 AM)29.39 "Hg (Nov 21, 6:20 AM)
Average42 °F83%29.87 "Hg
* Reported Nov 14 1:20 AM — Nov 29 1:20 AM, Kassel, Weather by CustomWeather, © 2015

Note: Actual official high and low records may vary slightly from our data, if they occured in-between our weather recording intervals... More about our weather records


Kassel weather history for previous 24 hours

Time TempWeatherWind HumidityBarometerVisibility
1:20 AM
Sun, Nov 29
39 °FLight rain. Passing clouds.16 mph81%29.86 "HgN/A
12:20 AM37 °FPartly cloudy.22 mph81%29.89 "HgN/A
11:20 PM
Sat, Nov 28
37 °FLight rain. Partly cloudy.13 mph81%29.92 "HgN/A
10:20 PM37 °FPassing clouds.16 mph75%29.95 "HgN/A
9:20 PM39 °FMostly cloudy.17 mph70%29.98 "HgN/A
8:20 PM39 °FOvercast.10 mph75%29.98 "HgN/A
7:20 PM37 °FPassing clouds.7 mph81%29.98 "HgN/A
6:20 PM37 °FPassing clouds.12 mph81%29.98 "HgN/A
5:20 PM37 °FPassing clouds.9 mph81%29.98 "HgN/A
4:20 PM39 °FPassing clouds.10 mph75%29.95 "HgN/A
3:20 PM41 °FScattered clouds.9 mph70%29.95 "HgN/A
2:20 PM43 °FPassing clouds.15 mph66%29.92 "HgN/A
1:20 PM43 °FScattered clouds.12 mph76%29.89 "HgN/A
12:20 PM43 °FPartly sunny.6 mph76%29.86 "HgN/A
11:20 AM39 °FPartly sunny.6 mph87%29.83 "HgN/A
10:20 AM37 °FDrizzle. Partly sunny.6 mph87%29.80 "HgN/A
9:20 AM36 °FBroken clouds.6 mph87%29.77 "HgN/A
9:02 AM34 °FLight rain. Partly sunny.5 mph93%29.77 "HgN/A
8:20 AM34 °FLight snow. Fog.12 mph93%29.74 "Hg3 mi
8:00 AM34 °FLight rain. Fog.7 mph87%29.74 "Hg2 mi
7:20 AM34 °FPassing clouds.9 mph87%29.74 "Hg5 mi
6:20 AM34 °FPassing clouds.13 mph87%29.74 "HgN/A
5:20 AM32 °FPassing clouds.10 mph93%29.74 "Hg5 mi
4:20 AM32 °FPassing clouds.13 mph93%29.77 "HgN/A
3:20 AM34 °FPassing clouds.16 mph87%29.80 "HgN/A
2:20 AM32 °FPassing clouds.16 mph93%29.80 "HgN/A
Weather by CustomWeather, © 2015

See weather overviewHow to use our weather pages